User: anonymous   Login
Location: Unspecified
(0.0000°N, 0.0000°E)
Time: 07:15:49
(UTC+00:00)
Language:

DELFI-N3XT - Orbit

View from above orbital plane
View from above orbital plane
View from above satellite
View from above satellite

Ground track
Ground track

The orbit data is extracted from the following two-line orbital elements,

1 39420U 13066E   19083.19254627  .00000152  00000-0  34850-4 0  9993
2 39420  97.7151  52.6903 0138599 136.4612 224.7631 14.62170060284616
Epoch (UTC): 24 March 2019 04:37:15
Eccentricity: 0.0138599
inclination: 97.7151°
perigee height: 588 km
apogee height: 784 km
right ascension of ascending node: 52.6903°
argument of perigee: 136.4612°
revolutions per day: 14.62170060
mean anomaly at epoch: 224.7631°
orbit number at epoch: 28461

The dashed part of the orbit path shows where the satellite is in the earth's shadow,  

DLR